Weather History for Cancun, Mexico

Change the Weather History Date:

Tuesday, April 9, 2013

  Actual Average Record
Temperature  
Mean Temperature 82 °F -  
Max Temperature 86 °F 86 °F - ()
Min Temperature 78 °F 69 °F - ()
Cooling Degree Days 17    
Growing Degree Days 32 (Base 50)    
Moisture  
Dew Point 73 °F    
Average Humidity 78    
Maximum Humidity 89    
Minimum Humidity 66    
Precipitation  
Precipitation 0.00 in - - ()
Sea Level Pressure  
Sea Level Pressure 29.94 in    
Wind  
Wind Speed 11 mph ()    
Max Wind Speed 21 mph    
Max Gust Speed -    
Visibility 7.0 miles    
Events      
T = Trace of Precipitation, MM = Missing Value Source: Averaged Metar Reports

Daily Weather History Graph

Daily Weather History Graph

Search for Another Location

Airport:

Trip Planner

Search our weather history database for the weather conditions in past years. The results will help you decide how hot, cold, wet, or windy it might be!

Date:

Astronomy

Apr. 09, 2013 Rise Set
Actual Time 6:33 AM CDT 7:04 PM CDT
Civil Twilight 6:10 AM CDT 7:27 PM CDT
Nautical Twilight 5:44 AM CDT 7:53 PM CDT
Astronomical Twilight 5:18 AM CDT 8:20 PM CDT
Moon 5:52 AM CDT (4/9) 6:38 PM CDT (4/9)
Length of Visible Light 13h 16m
Length of Day
12h 31m
Waning Crescent, 1% of the Moon is Illuminated
Apr 9
Waning Crescent
Apr 10
New
Apr 18
First Quarter
Apr 25
Full
May 2
Last Quarter

Hourly Weather History & Observations

Time (CDT) Temp. Heat Index Dew Point Humidity Pressure Visibility Wind Dir Wind Speed Gust Speed Precip Events Conditions
12:44 AM 78.8 °F - 73.4 °F 83% 29.95 in 7.0 mi ESE 10.4 mph - N/A   Scattered Clouds
1:58 AM 78.8 °F - 73.4 °F 83% 29.93 in 7.0 mi ESE 11.5 mph - N/A   Scattered Clouds
2:40 AM 78.8 °F - 73.4 °F 83% 29.92 in 7.0 mi ESE 9.2 mph - N/A   Scattered Clouds
3:41 AM 78.8 °F - 73.4 °F 83% 29.90 in 7.0 mi ESE 11.5 mph - N/A   Scattered Clouds
4:42 AM 78.8 °F - 73.4 °F 83% 29.89 in 7.0 mi ESE 11.5 mph - N/A   Scattered Clouds
5:40 AM 78.8 °F - 73.4 °F 83% 29.90 in 7.0 mi ESE 11.5 mph - N/A   Scattered Clouds
6:46 AM 78.8 °F - 73.4 °F 83% 29.92 in 7.0 mi ESE 15.0 mph - N/A   Scattered Clouds
7:44 AM 80.6 °F 85.4 °F 73.4 °F 79% 29.95 in 7.0 mi SE 10.4 mph - N/A   Mostly Cloudy
8:43 AM 82.4 °F 88.2 °F 73.4 °F 74% 29.97 in 7.0 mi SE 19.6 mph - N/A   Scattered Clouds
9:42 AM 82.4 °F 88.2 °F 73.4 °F 74% 29.99 in 7.0 mi SE 15.0 mph - N/A   Scattered Clouds
10:45 AM 84.2 °F 90.9 °F 73.4 °F 70% 29.99 in 7.0 mi SE 20.7 mph - N/A   Scattered Clouds
11:42 AM 84.2 °F 89.6 °F 71.6 °F 66% 29.99 in 7.0 mi SE 19.6 mph - N/A   Scattered Clouds
12:50 PM 86.0 °F 93.4 °F 73.4 °F 66% 29.98 in 7.0 mi ESE 16.1 mph - N/A   Scattered Clouds
1:42 PM 84.2 °F 90.9 °F 73.4 °F 70% 29.95 in 7.0 mi SE 17.3 mph - N/A   Scattered Clouds
2:44 PM 84.2 °F 90.9 °F 73.4 °F 70% 29.93 in 7.0 mi SE 15.0 mph - N/A   Mostly Cloudy
3:44 PM 82.4 °F 88.2 °F 73.4 °F 74% 29.93 in 7.0 mi ESE 16.1 mph - N/A   Mostly Cloudy
4:47 PM 82.4 °F 88.2 °F 73.4 °F 74% 29.91 in 7.0 mi ESE 15.0 mph - N/A   Scattered Clouds
5:43 PM 82.4 °F 88.2 °F 73.4 °F 74% 29.91 in 7.0 mi East 11.5 mph - N/A   Scattered Clouds
6:46 PM 80.6 °F 85.4 °F 73.4 °F 79% 29.92 in 7.0 mi ESE 8.1 mph - N/A   Scattered Clouds
7:40 PM 78.8 °F - 73.4 °F 83% 29.92 in 7.0 mi SE 13.8 mph - N/A   Partly Cloudy
8:40 PM 78.8 °F - 73.4 °F 83% 29.94 in 7.0 mi ESE 9.2 mph - N/A   Scattered Clouds
9:49 PM 78.8 °F - 75.2 °F 89% 29.92 in 7.0 mi ESE 10.4 mph - N/A   Scattered Clouds
10:47 PM 78.8 °F - 73.4 °F 83% 29.97 in 7.0 mi East 5.8 mph - N/A   Partly Cloudy
11:46 PM 78.8 °F - 73.4 °F 83% 29.96 in 7.0 mi ESE 9.2 mph - N/A   Clear